Meteo Giornale » Osservazioni meteo Italia » Pisa-S Giusto

ore: 16:45 - Osservazioni Meteo Pisa-S Giusto
Lat. 43° 41' N Lon. 10° 23' E Alt. 2 metri s.l.m.

sereno Europe/Rome

21 °C

Sereno

Temp. 24 Ore

10 °C

21 °C

Ovest/Sud-Ovest

9.3 Km/h

Dew point 16 °C

Umidità 73 %

Visibilità  10 Km

Il sole sorge alle ore 06:17

Il sole tramonta alle ore 20:15

Data e Ora Cielo e Fenomeni T °C DP °C Um. % Pres. hPa Vis. km Vento km/h
Oggi h: 16:45 sereno Sereno 21 16 73 1016 10 O/SO 9.3
Oggi h: 16:15 poco_nuvoloso Poco Nuvoloso 21 16 73 1017 10 O 14.8
Oggi h: 15:45 poco_nuvoloso Poco Nuvoloso 21 16 73 1017 10 O 14.8
Oggi h: 15:15 poco_nuvoloso Poco Nuvoloso 21 16 73 1017 10 O 16.7
Oggi h: 14:45 poco_nuvoloso Poco Nuvoloso 21 16 73 1017 10 O/SO 16.7
Oggi h: 14:15 poco_nuvoloso Poco Nuvoloso 21 16 73 1018 10 O/NO 16.7
Oggi h: 13:45 poco_nuvoloso Poco Nuvoloso 21 15 68 1018 10 O 14.8
Oggi h: 13:15 poco_nuvoloso Poco Nuvoloso 21 15 68 1018 10 O/SO 14.8
Oggi h: 12:45 poco_nuvoloso Poco Nuvoloso 21 13 60 1018 10 O 9.3
Oggi h: 12:15 poco_nuvoloso Poco Nuvoloso 21 13 60 1018 10 N 5.5
Oggi h: 11:45 poco_nuvoloso Poco Nuvoloso 20 13 64 1018 10 N 5.5
Oggi h: 11:15 poco_nuvoloso Poco Nuvoloso 19 14 72 1018 10 N 3.7
Oggi h: 10:45 sereno Sereno 18 15 82 1018 10 N 3.7
Oggi h: 10:15 sereno Sereno 17 15 88 1018 10 N 3.7
Oggi h: 09:45 sereno Sereno 15 15 100 1018 8 N 3.7
Oggi h: 09:15 sereno Sereno 14 14 100 1018 8 SE 7.4
Oggi h: 08:45 sereno Sereno 13 13 100 1018 8 N 5.5
Oggi h: 08:15 foschia Foschia 12 12 100 1018 4 N 5.5
Oggi h: 07:45 sereno Sereno 11 11 100 1018 6 N 5.5
Oggi h: 07:15 foschia Foschia 10 10 100 1018 4 N 5.5
Oggi h: 06:45 nebbia Nebbia 10 10 100 1018 0.8 N 5.5
Oggi h: 06:15 nebbia Nebbia 10 10 100 1018 0.4 N 5.5
Oggi h: 05:45 foschia Foschia 10 10 100 1018 3 N 5.5
Oggi h: 05:15 sereno Sereno 11 11 100 1018 10 E/SE 7.4
Oggi h: 04:45 sereno Sereno 11 11 100 1018 10 E 7.4
Oggi h: 04:15 nebbia Nebbia a Strati 11 11 100 1018 6 E 9.3
Oggi h: 03:45 nebbia Nebbia a Strati 11 11 100 1018 6 NE 9.3
Oggi h: 03:15 nebbia Nebbia a Strati 11 11 100 1018 6 E 7.4
Oggi h: 02:45 nebbia Nebbia a Strati 11 11 100 1018 6 E 7.4
Oggi h: 02:15 nebbia Nebbia a Strati 12 12 100 1019 6 N 3.7
Oggi h: 01:45 nebbia Nebbia a Strati Foschia 12 12 100 1019 4 E/SE 7.4
Oggi h: 01:15 sereno Sereno 12 12 100 1019 10 N 5.5
Oggi h: 00:45 sereno Sereno 12 12 100 1019 10 N 5.5
Oggi h: 00:15 sereno Sereno 13 13 100 1019 10 N 5.5
Ieri h: 23:45 sereno Sereno 14 14 100 1019 6 N 3.7
Ieri h: 23:15 sereno Sereno 15 15 100 1019 6 N 5.5
Ieri h: 22:45 sereno Sereno 15 15 100 1019 10 N 5.5
Ieri h: 22:15 sereno Sereno 16 15 93 1019 10 N 3.7
Ieri h: 21:45 sereno Sereno 16 16 100 1019 10 N 1.8
Ieri h: 21:15 sereno Sereno 17 16 93 1018 10 O/SO 7.4
Ieri h: 20:45 sereno Sereno 17 16 93 1018 10 O/SO 7.4
Ieri h: 20:15 sereno Sereno 17 16 93 1018 10 O 9.3
Ieri h: 19:45 sereno Sereno 18 16 88 1018 10 O/SO 9.3
Ieri h: 19:15 sereno Sereno 19 16 82 1018 10 SO 14.8
Ieri h: 18:45 sereno Sereno 20 16 77 1018 10 O/SO 16.7